Simultaneous Nadir Overpasses (SNOs) Predictions

Prediction of SNOs near US between AQUA and NPP Satellite Orbit:

Table of predicted SNOs near US for the next 10.0 days since TLE Epoch: 10/20/2018
Index Date (AQUA) Time (AQUA) AQUA Lat,Lon Date (NPP) Time (NPP) NPP Lat,Lon Distance(km) Time Diff (sec)
1 10/21/2018 07:18:51 49.92, -76.02 10/21/2018 07:20:38 50.36, -78.21 163.38 107
2 10/21/2018 08:57:44 49.93,-100.74 10/21/2018 09:02:06 50.47,-103.53 207.86 262
3 10/23/2018 18:17:00 50.00, -80.21 10/23/2018 18:10:54 49.72, -81.74 113.44 366
4 10/23/2018 19:55:53 49.99,-104.93 10/23/2018 19:52:22 49.61,-107.06 158.67 211
5 10/23/2018 21:31:01 36.57,-124.99 10/23/2018 21:29:59 36.12,-127.53 233.75 62
6 10/26/2018 09:23:43 23.08,-113.55 10/26/2018 09:16:14 23.17,-113.98 45.08 449
7 10/29/2018 06:30:20 46.46, -65.03 10/29/2018 06:30:52 46.84, -67.03 158.61 32
8 10/29/2018 08:08:15 49.91, -88.38 10/29/2018 08:11:20 50.40, -90.88 186.84 185
9 10/29/2018 09:47:08 49.91,-113.10 10/29/2018 09:52:48 50.51,-116.21 231.28 340




NCC Satellite Simultaneous Nadir Overpasses (SNOs) Prediction Service
